Weather in Zelenyy Bor

Russia / Krasnoyarsk Krai     53°37′13″N   91°37′29″E
В апреле 2022 года жителям России запретили посещать сайт meteo.paraplan.net по решению Генеральной прокуратуры. Аудитория сайта уменьшилась в 10 раз. Владельцы сайта не видят смысла в поддержке погодного сервера в таких условиях. Сайт будет закрыт в октябре.
temp.,
°C
wind,
m/s
gust,
m/s
humid.,
%
clouds,
%
prec.,
mm/h
press.,
hPa
HPBL,
m
4 october, tue
tue401:00−2n01605 0.0 103510
04:00−2sse00607 0.0 103510
07:00−2sse006090 0.0 103510
10:00+2se1148100 0.0 1035332
13:00+5e114034 0.0 1034692
16:00+6e113921 0.0 1033742
19:00+2sw11540 0.0 103310
22:000ssw11590 0.0 103410
5 october, wed
wed501:00−1s22655 0.0 103310
04:00−1s22705 0.0 103311
07:00−2s2271100 0.0 103319
10:00+3ssw3552100 0.0 1032352
13:00+8wsw6941100 0.0 1028854
16:00+7wsw51050100 0.0 1027816
19:00+5sw81563100 0.4 1028877
22:00+3wsw71387100 3.4 1029776
6 october, thu
thu601:00+3sw5118582 4.8 1029450
04:00+2sw2487100 0.0 102986
07:000ssw119299 0.0 102923
10:00+2nne1186100 0.0 1029339
13:00+4n2272100 0.0 1028744
16:00+5n2263100 0.0 1028844
19:00+3sse0076100 0.0 103010
22:00+1nnw3599100 2.3 1033154
7 october, fri
fri701:00−1w229470 2.6 103419
04:00−1w119297 0.0 103514
07:00−1sw1193100 0.0 103610
10:00+1ese118887 0.1 1036398
13:00+3sse2272100 0.1 1035936
16:00+3e1174100 0.0 1034323
19:00+3e2276100 0.0 103432
22:000ese3390100 0.0 103437
8 october, sat
sat801:00−1ese229292 0.0 103320
04:00−2ese119460 0.0 103215
07:00−2ese119215 0.0 103210
10:00+1se22745 0.0 1031283
13:00+6se346054 0.0 1028527
16:00+8se24625 0.0 1025515
19:00+3ene228183 0.0 102411
22:00+2se228860 0.0 102410